PAL494 RPLL-RPMD

Flight info

Callsign PAL494
Flight time 1h 21m
Altitude 39000
Route IPATA2R IPATA B462 MASBA W9A BN W9 RIMAR RIMAR2R
Aircraft B77W/H-SDE1E2E3FGHIJ2J3J4J5M1RWXY/LB1D1

Departure

Time 2026-05-01 12:09
Airport Ninoy Aquino International Airport (RPLL)

Arrival

Time 2026-05-01 13:30
Airport Francisco Bangoy International Airport (RPMD)
Time Latitude Longitude Altitude Speed Heading
2026-05-01 11:33 14.51077 121.01370 73 ft 0 kts 221°
2026-05-01 11:47 14.51087 121.01378 63 ft 2 kts 217°
2026-05-01 11:47 14.51100 121.01388 63 ft 2 kts 213°
2026-05-01 11:48 14.51114 121.01397 66 ft 2 kts 204°
2026-05-01 11:48 14.51130 121.01402 64 ft 2 kts 184°
2026-05-01 11:48 14.51146 121.01400 63 ft 2 kts 149°
2026-05-01 11:48 14.51156 121.01392 63 ft 1 kts 135°
2026-05-01 11:49 14.51158 121.01391 63 ft 0 kts 135°
2026-05-01 11:54 14.51154 121.01395 65 ft 1 kts 135°
2026-05-01 11:54 14.51144 121.01405 69 ft 3 kts 135°
2026-05-01 11:54 14.51128 121.01422 65 ft 4 kts 135°
2026-05-01 11:54 14.51106 121.01445 65 ft 5 kts 134°
2026-05-01 11:55 14.51080 121.01473 63 ft 6 kts 134°
2026-05-01 11:55 14.51048 121.01506 63 ft 7 kts 134°
2026-05-01 11:55 14.51013 121.01543 66 ft 8 kts 134°
2026-05-01 11:55 14.50997 121.01560 65 ft 1 kts 134°
2026-05-01 11:56 14.50988 121.01569 63 ft 2 kts 134°
2026-05-01 11:56 14.50974 121.01583 65 ft 3 kts 134°
2026-05-01 11:56 14.50956 121.01603 63 ft 4 kts 134°
2026-05-01 11:56 14.50933 121.01626 64 ft 5 kts 134°
2026-05-01 11:57 14.50905 121.01653 68 ft 6 kts 144°
2026-05-01 11:57 14.50878 121.01657 64 ft 6 kts 194°
2026-05-01 11:57 14.50834 121.01612 68 ft 7 kts 236°
2026-05-01 11:57 14.50806 121.01565 63 ft 8 kts 238°
2026-05-01 11:58 14.50773 121.01509 63 ft 10 kts 238°
2026-05-01 11:58 14.50736 121.01447 66 ft 11 kts 238°
2026-05-01 11:58 14.50663 121.01309 63 ft 11 kts 241°
2026-05-01 11:59 14.50625 121.01239 65 ft 12 kts 240°
2026-05-01 11:59 14.50581 121.01162 67 ft 13 kts 240°
2026-05-01 11:59 14.50536 121.01080 63 ft 14 kts 240°
2026-05-01 12:00 14.50454 121.00933 69 ft 12 kts 240°
2026-05-01 12:00 14.50411 121.00858 65 ft 10 kts 240°
2026-05-01 12:00 14.50332 121.00714 64 ft 13 kts 240°
2026-05-01 12:01 14.50287 121.00632 64 ft 14 kts 240°
2026-05-01 12:01 14.50237 121.00544 63 ft 15 kts 239°
2026-05-01 12:01 14.50185 121.00451 62 ft 15 kts 240°
2026-05-01 12:01 14.50132 121.00356 63 ft 15 kts 240°
2026-05-01 12:02 14.50078 121.00261 64 ft 15 kts 240°
2026-05-01 12:02 14.50025 121.00165 64 ft 16 kts 240°
2026-05-01 12:02 14.49971 121.00066 68 ft 16 kts 240°
2026-05-01 12:02 14.49937 121.00004 63 ft 9 kts 240°
2026-05-01 12:03 14.49915 120.99973 65 ft 4 kts 222°
2026-05-01 12:03 14.49893 120.99968 74 ft 0 kts 173°
2026-05-01 12:04 14.49891 120.99968 74 ft 1 kts 173°
2026-05-01 12:04 14.49883 120.99969 65 ft 2 kts 172°
2026-05-01 12:05 14.49866 120.99974 62 ft 3 kts 160°
2026-05-01 12:05 14.49816 121.00003 65 ft 5 kts 141°
2026-05-01 12:05 14.49811 121.00039 66 ft 6 kts 76°
2026-05-01 12:06 14.49823 121.00064 66 ft 6 kts 64°
2026-05-01 12:06 14.49841 121.00105 64 ft 0 kts 62°
2026-05-01 12:08 14.50028 121.00445 62 ft 118 kts 60°
2026-05-01 12:08 14.50594 121.01468 206 ft 193 kts 62°
2026-05-01 12:09 14.51338 121.02720 748 ft 208 kts 62°
2026-05-01 12:09 14.51985 121.03906 2243 ft 175 kts 62°
2026-05-01 12:09 14.52556 121.04966 3241 ft 175 kts 62°
2026-05-01 12:09 14.53204 121.06159 3576 ft 206 kts 62°
2026-05-01 12:10 14.53955 121.07526 3849 ft 239 kts 61°
2026-05-01 12:10 14.55730 121.10722 5359 ft 265 kts 61°
2026-05-01 12:10 14.56659 121.12388 6328 ft 269 kts 61°
2026-05-01 12:11 14.57323 121.16109 7953 ft 276 kts 105°
2026-05-01 12:11 14.56487 121.17901 8907 ft 280 kts 126°
2026-05-01 12:11 14.55100 121.19332 9700 ft 286 kts 136°
2026-05-01 12:12 14.53599 121.20684 10422 ft 296 kts 137°
2026-05-01 12:12 14.51958 121.22154 10755 ft 325 kts 137°
2026-05-01 12:12 14.50171 121.23755 11021 ft 353 kts 137°
2026-05-01 12:12 14.48277 121.25454 11786 ft 365 kts 137°
2026-05-01 12:13 14.46352 121.27183 12803 ft 369 kts 137°
2026-05-01 12:13 14.44406 121.28937 13893 ft 373 kts 137°
2026-05-01 12:13 14.42437 121.30716 14786 ft 378 kts 137°
2026-05-01 12:13 14.40469 121.32500 15632 ft 385 kts 137°
2026-05-01 12:14 14.38445 121.34337 16509 ft 390 kts 137°
2026-05-01 12:14 14.36396 121.36195 17427 ft 394 kts 137°
2026-05-01 12:14 14.34321 121.38081 18286 ft 400 kts 137°
2026-05-01 12:14 14.32216 121.39993 19049 ft 405 kts 137°
2026-05-01 12:15 14.30089 121.41923 19805 ft 410 kts 137°
2026-05-01 12:15 14.27934 121.43880 20508 ft 416 kts 137°
2026-05-01 12:15 14.25743 121.45868 21230 ft 422 kts 137°
2026-05-01 12:15 14.23520 121.47884 21859 ft 429 kts 138°
2026-05-01 12:16 14.21272 121.49923 22637 ft 433 kts 138°
2026-05-01 12:16 14.18992 121.51988 23273 ft 440 kts 138°
2026-05-01 12:16 14.16674 121.54089 23837 ft 446 kts 139°
2026-05-01 12:16 14.14364 121.56182 24449 ft 449 kts 139°
2026-05-01 12:17 14.12007 121.58317 25053 ft 453 kts 139°
2026-05-01 12:17 14.09598 121.60498 25619 ft 458 kts 139°
2026-05-01 12:17 14.07188 121.62681 26162 ft 463 kts 139°
2026-05-01 12:17 14.04760 121.64879 26713 ft 468 kts 140°
2026-05-01 12:18 14.02335 121.67072 27255 ft 472 kts 140°
2026-05-01 12:18 13.99828 121.69340 27798 ft 476 kts 140°
2026-05-01 12:18 13.97325 121.71603 28366 ft 480 kts 140°
2026-05-01 12:18 13.94806 121.73882 28871 ft 485 kts 140°
2026-05-01 12:19 13.92296 121.76152 29380 ft 489 kts 140°
2026-05-01 12:19 13.89722 121.78478 29887 ft 493 kts 140°
2026-05-01 12:19 13.87152 121.80829 30296 ft 497 kts 138°
2026-05-01 12:19 13.84737 121.83400 30716 ft 501 kts 132°
2026-05-01 12:20 13.82512 121.86161 31115 ft 504 kts 131°
2026-05-01 12:20 13.80281 121.88954 31486 ft 506 kts 131°
2026-05-01 12:20 13.78039 121.91751 31954 ft 506 kts 131°
2026-05-01 12:20 13.75798 121.94526 32506 ft 503 kts 131°
2026-05-01 12:21 13.73552 121.97292 33086 ft 501 kts 131°
2026-05-01 12:21 13.71317 122.00036 33619 ft 500 kts 131°
2026-05-01 12:21 13.69079 122.02775 34123 ft 499 kts 131°
2026-05-01 12:21 13.66845 122.05507 34520 ft 499 kts 131°
2026-05-01 12:22 13.64612 122.08237 34898 ft 500 kts 131°
2026-05-01 12:22 13.62370 122.10976 35278 ft 500 kts 131°
2026-05-01 12:22 13.60171 122.13664 35677 ft 500 kts 131°
2026-05-01 12:22 13.57934 122.16398 36075 ft 500 kts 131°
2026-05-01 12:23 13.55664 122.19172 36466 ft 500 kts 131°
2026-05-01 12:23 13.53455 122.21870 36824 ft 500 kts 131°
2026-05-01 12:23 13.51215 122.24607 37204 ft 500 kts 131°
2026-05-01 12:23 13.48974 122.27342 37574 ft 500 kts 131°
2026-05-01 12:24 13.46735 122.30076 37935 ft 500 kts 131°
2026-05-01 12:24 13.44499 122.32804 38292 ft 500 kts 131°
2026-05-01 12:24 13.42254 122.35541 38633 ft 500 kts 131°
2026-05-01 12:24 13.40009 122.38279 38877 ft 501 kts 131°
2026-05-01 12:25 13.33227 122.46542 38921 ft 502 kts 131°
2026-05-01 12:26 13.28760 122.51983 38924 ft 497 kts 131°
2026-05-01 12:26 13.22085 122.60103 38929 ft 495 kts 131°
2026-05-01 12:27 13.15413 122.68212 38930 ft 496 kts 131°
2026-05-01 12:28 13.08764 122.76286 38928 ft 497 kts 131°
2026-05-01 12:29 13.02063 122.84415 38930 ft 497 kts 131°
2026-05-01 12:29 12.95347 122.92556 38924 ft 498 kts 131°
2026-05-01 12:30 12.88634 123.00686 38923 ft 498 kts 131°
2026-05-01 12:31 12.84159 123.06102 38927 ft 498 kts 131°
2026-05-01 12:31 12.79682 123.11515 38927 ft 497 kts 131°
2026-05-01 12:32 12.75236 123.16890 38924 ft 497 kts 131°
2026-05-01 12:32 12.68538 123.24979 38921 ft 496 kts 131°
2026-05-01 12:33 12.64073 123.30368 38921 ft 496 kts 131°
2026-05-01 12:33 12.59612 123.35748 38931 ft 495 kts 131°
2026-05-01 12:34 12.55158 123.41118 38919 ft 495 kts 131°
2026-05-01 12:34 12.50698 123.46491 38917 ft 495 kts 131°
2026-05-01 12:35 12.46245 123.51855 38937 ft 494 kts 131°
2026-05-01 12:35 12.41786 123.57222 38934 ft 494 kts 131°
2026-05-01 12:36 12.37041 123.62269 38936 ft 491 kts 142°
2026-05-01 12:36 12.31434 123.66236 38918 ft 489 kts 153°
2026-05-01 12:37 12.25428 123.69486 38916 ft 489 kts 154°
2026-05-01 12:37 12.19374 123.72772 38913 ft 489 kts 153°
2026-05-01 12:38 12.13418 123.76039 38917 ft 488 kts 153°
2026-05-01 12:38 12.07426 123.79339 38917 ft 488 kts 153°
2026-05-01 12:39 12.01440 123.82637 38918 ft 488 kts 153°
2026-05-01 12:39 11.95460 123.85929 38905 ft 488 kts 153°
2026-05-01 12:40 11.89482 123.89216 38911 ft 487 kts 153°
2026-05-01 12:40 11.83512 123.92498 38905 ft 487 kts 153°
2026-05-01 12:41 11.77582 123.95756 38899 ft 487 kts 153°
2026-05-01 12:41 11.71614 123.99033 38902 ft 486 kts 153°
2026-05-01 12:42 11.65663 124.02299 38898 ft 486 kts 153°
2026-05-01 12:42 11.59700 124.05571 38899 ft 486 kts 153°
2026-05-01 12:43 11.53747 124.08835 38903 ft 485 kts 153°
2026-05-01 12:43 11.47796 124.12098 38904 ft 486 kts 153°
2026-05-01 12:44 11.41846 124.15356 38898 ft 485 kts 153°
2026-05-01 12:45 11.30009 124.21837 38893 ft 484 kts 153°
2026-05-01 12:45 11.24079 124.25081 38892 ft 483 kts 153°
2026-05-01 12:46 11.18152 124.28322 38893 ft 482 kts 153°
2026-05-01 12:46 11.12242 124.31553 38886 ft 482 kts 153°
2026-05-01 12:47 11.06332 124.34780 38898 ft 481 kts 153°
2026-05-01 12:47 11.00448 124.37960 38893 ft 481 kts 153°
2026-05-01 12:48 10.95490 124.40631 38897 ft 481 kts 153°
2026-05-01 12:48 10.89574 124.43822 38899 ft 481 kts 153°
2026-05-01 12:49 10.83701 124.46992 38896 ft 481 kts 153°
2026-05-01 12:49 10.77796 124.50177 38897 ft 480 kts 153°
2026-05-01 12:50 10.71885 124.53377 38903 ft 480 kts 153°
2026-05-01 12:50 10.65991 124.56580 38893 ft 480 kts 153°
2026-05-01 12:51 10.60096 124.59783 38898 ft 480 kts 153°
2026-05-01 12:52 10.51261 124.64578 38902 ft 480 kts 153°
2026-05-01 12:52 10.42415 124.69374 38903 ft 480 kts 153°
2026-05-01 12:53 10.33573 124.74166 38908 ft 480 kts 153°
2026-05-01 12:54 10.27712 124.77340 38908 ft 480 kts 153°
2026-05-01 12:54 10.18857 124.82133 38907 ft 481 kts 153°
2026-05-01 12:55 10.10007 124.86921 38909 ft 481 kts 153°
2026-05-01 12:56 10.04104 124.90112 38910 ft 480 kts 153°
2026-05-01 12:56 9.98225 124.93290 38913 ft 479 kts 153°
2026-05-01 12:57 9.92366 124.96456 38918 ft 478 kts 153°
2026-05-01 12:57 9.83579 125.01200 38912 ft 476 kts 152°
2026-05-01 12:58 9.77736 125.04355 38911 ft 475 kts 152°
2026-05-01 12:59 9.68974 125.09033 38913 ft 473 kts 152°
2026-05-01 12:59 9.60279 125.13662 38914 ft 471 kts 152°
2026-05-01 13:00 9.51587 125.18305 38910 ft 470 kts 152°
2026-05-01 13:01 9.42921 125.22939 38909 ft 471 kts 152°
2026-05-01 13:02 9.34141 125.27629 38911 ft 472 kts 152°
2026-05-01 13:07 8.70231 125.50916 32420 ft 455 kts 172°
2026-05-01 13:07 8.67091 125.51234 31895 ft 452 kts 172°
2026-05-01 13:07 8.63966 125.51551 31390 ft 449 kts 172°
2026-05-01 13:08 8.60866 125.51865 30882 ft 446 kts 172°
2026-05-01 13:08 8.57785 125.52176 30363 ft 444 kts 172°
2026-05-01 13:08 8.54722 125.52485 29819 ft 441 kts 172°
2026-05-01 13:08 8.51668 125.52792 29236 ft 439 kts 173°
2026-05-01 13:09 8.48641 125.53074 28694 ft 436 kts 173°
2026-05-01 13:09 8.45625 125.53342 28171 ft 433 kts 173°
2026-05-01 13:09 8.42636 125.53604 27657 ft 430 kts 173°
2026-05-01 13:09 8.39703 125.53862 27163 ft 427 kts 173°
2026-05-01 13:10 8.36756 125.54124 26668 ft 424 kts 173°
2026-05-01 13:10 8.33832 125.54384 26161 ft 422 kts 173°
2026-05-01 13:10 8.30902 125.54647 25663 ft 420 kts 173°
2026-05-01 13:10 8.28000 125.54908 25151 ft 419 kts 173°
2026-05-01 13:11 8.25098 125.55169 24667 ft 417 kts 173°
2026-05-01 13:11 8.22210 125.55428 24152 ft 416 kts 173°
2026-05-01 13:11 8.19330 125.55687 23655 ft 415 kts 173°
2026-05-01 13:11 8.16457 125.55942 23101 ft 413 kts 173°
2026-05-01 13:12 8.13601 125.56200 22577 ft 411 kts 173°
2026-05-01 13:12 8.10762 125.56456 22065 ft 408 kts 173°
2026-05-01 13:12 8.07941 125.56710 21574 ft 406 kts 173°
2026-05-01 13:12 8.05134 125.56962 21085 ft 404 kts 173°
2026-05-01 13:13 8.02347 125.57211 20600 ft 402 kts 173°
2026-05-01 13:13 7.99565 125.57460 20111 ft 400 kts 173°
2026-05-01 13:13 7.96813 125.57627 19610 ft 391 kts 180°
2026-05-01 13:13 7.95008 125.57358 19292 ft 388 kts 193°
2026-05-01 13:14 7.91641 125.56257 18701 ft 384 kts 196°
2026-05-01 13:14 7.89089 125.55448 18225 ft 385 kts 195°
2026-05-01 13:14 7.87354 125.54918 17859 ft 385 kts 194°
2026-05-01 13:14 7.84786 125.54151 17363 ft 385 kts 194°
2026-05-01 13:15 7.81390 125.53151 16729 ft 384 kts 194°
2026-05-01 13:15 7.78824 125.52399 16240 ft 383 kts 194°
2026-05-01 13:15 7.76295 125.51657 16021 ft 373 kts 194°
2026-05-01 13:15 7.73803 125.50926 15452 ft 375 kts 194°
2026-05-01 13:16 7.71278 125.50187 14868 ft 377 kts 194°
2026-05-01 13:16 7.68764 125.49451 14389 ft 376 kts 194°
2026-05-01 13:16 7.66254 125.48715 13915 ft 375 kts 194°
2026-05-01 13:17 7.59067 125.46608 12487 ft 335 kts 194°
2026-05-01 13:17 7.56878 125.45966 12080 ft 321 kts 194°
2026-05-01 13:18 7.52614 125.44720 11373 ft 318 kts 194°
2026-05-01 13:18 7.50522 125.44110 10981 ft 319 kts 194°
2026-05-01 13:18 7.48359 125.43478 10580 ft 319 kts 194°
2026-05-01 13:18 7.46261 125.42865 10364 ft 314 kts 194°
2026-05-01 13:19 7.44191 125.42258 10224 ft 307 kts 194°
2026-05-01 13:19 7.42164 125.41664 10085 ft 299 kts 194°
2026-05-01 13:19 7.38205 125.40507 9495 ft 295 kts 194°
2026-05-01 13:20 7.36236 125.39931 9144 ft 294 kts 194°
2026-05-01 13:20 7.34273 125.39433 8769 ft 285 kts 184°
2026-05-01 13:20 7.32365 125.39642 8464 ft 270 kts 162°
2026-05-01 13:21 7.28779 125.40493 7863 ft 273 kts 166°
2026-05-01 13:21 7.26911 125.40881 7502 ft 265 kts 166°
2026-05-01 13:21 7.25172 125.41246 7208 ft 254 kts 166°
2026-05-01 13:21 7.23478 125.41602 6898 ft 243 kts 167°
2026-05-01 13:22 7.21851 125.41947 6648 ft 240 kts 166°
2026-05-01 13:22 7.20202 125.42296 6373 ft 241 kts 167°
2026-05-01 13:22 7.18558 125.42643 6067 ft 242 kts 167°
2026-05-01 13:22 7.16915 125.42989 5762 ft 241 kts 167°
2026-05-01 13:23 7.15275 125.43336 5475 ft 240 kts 167°
2026-05-01 13:23 7.13644 125.43680 5196 ft 239 kts 167°
2026-05-01 13:23 7.12020 125.44022 4954 ft 236 kts 167°
2026-05-01 13:23 7.10410 125.44362 4637 ft 237 kts 167°
2026-05-01 13:24 7.08797 125.44702 4334 ft 234 kts 167°
2026-05-01 13:24 7.07266 125.45037 4035 ft 221 kts 162°
2026-05-01 13:24 7.06009 125.45787 3806 ft 204 kts 135°
2026-05-01 13:25 7.04009 125.47579 3484 ft 187 kts 139°
2026-05-01 13:25 7.03010 125.48429 3330 ft 188 kts 139°
2026-05-01 13:25 7.02013 125.49286 3102 ft 188 kts 137°
2026-05-01 13:25 7.01247 125.50266 2858 ft 171 kts 103°
2026-05-01 13:26 7.01389 125.51358 2750 ft 159 kts 56°
2026-05-01 13:26 7.02087 125.52264 2665 ft 169 kts 50°
2026-05-01 13:26 7.02818 125.53178 2472 ft 166 kts 49°
2026-05-01 13:26 7.03537 125.54050 2300 ft 162 kts 49°
2026-05-01 13:27 7.04253 125.54900 2142 ft 159 kts 49°
2026-05-01 13:27 7.04975 125.55756 2009 ft 161 kts 49°
2026-05-01 13:27 7.06443 125.57475 1670 ft 162 kts 48°
2026-05-01 13:28 7.07896 125.59161 1253 ft 160 kts 48°
2026-05-01 13:28 7.08375 125.59722 1107 ft 159 kts 48°
2026-05-01 13:29 7.09818 125.61399 702 ft 157 kts 49°
2026-05-01 13:29 7.11229 125.63024 262 ft 153 kts 49°
2026-05-01 13:30 7.13187 125.65300 107 ft 28 kts 49°
2026-05-01 13:31 7.13310 125.65447 105 ft 10 kts 50°
2026-05-01 13:31 7.13433 125.65553 106 ft 7 kts 137°
2026-05-01 13:32 7.13339 125.65488 107 ft 10 kts 229°
2026-05-01 13:33 7.13182 125.65306 107 ft 13 kts 230°
2026-05-01 13:33 7.13059 125.65161 107 ft 14 kts 229°
2026-05-01 13:34 7.12934 125.65015 106 ft 10 kts 229°
2026-05-01 13:34 7.12880 125.64932 107 ft 6 kts 270°
2026-05-01 13:35 7.12938 125.64866 107 ft 6 kts 320°
2026-05-01 13:35 7.12972 125.64837 106 ft 6 kts 320°
2026-05-01 13:35 7.13012 125.64766 106 ft 4 kts 256°
2026-05-01 13:36 7.12996 125.64747 106 ft 4 kts 229°
2026-05-01 13:36 7.12979 125.64727 106 ft 4 kts 229°
2026-05-01 13:36 7.12945 125.64686 106 ft 4 kts 234°
2026-05-01 13:37 7.12942 125.64661 106 ft 4 kts 283°
2026-05-01 13:37 7.12954 125.64636 106 ft 4 kts 302°
2026-05-01 13:37 7.12973 125.64616 106 ft 4 kts 319°
2026-05-01 13:37 7.12980 125.64610 106 ft 0 kts 319°
2026-05-01 13:38 7.12981 125.64609 106 ft 0 kts 319°